Simultaneous Nadir Overpasses (SNOs) Predictions

Prediction of SNOs between AQUA and GOES-15 Satellite Orbit:

Table of predicted SNOs for the next 14.0 days since TLE Epoch: 8/22/2025
Index Date Time (AQUA) AQUA Lat,Lon GOES-15 Lat,Lon Distance(km) Time Diff (sec)
1 08/23/2025 22:43:07 -0.55, 61.84 -0.51, 61.76 9.88 80
2 08/26/2025 10:41:50 0.59, 62.22 0.50, 61.77 50.88 80
3 08/26/2025 23:00:55 0.40, 57.61 -0.48, 61.80 476.92 80
4 08/28/2025 22:40:23 -0.67, 62.64 -0.50, 61.85 89.92 80
5 08/29/2025 10:59:37 -0.36, 58.00 0.48, 61.84 437.90 80
6 08/31/2025 10:39:05 0.74, 63.02 0.49, 61.89 129.04 80
7 08/31/2025 22:58:10 0.30, 58.42 -0.47, 61.91 398.09 80
8 09/02/2025 22:37:38 -0.83, 63.44 -0.50, 61.97 167.47 80
9 09/03/2025 10:56:52 -0.19, 58.80 0.47, 61.98 361.42 80
